C/2018 E1 ( ATLAS )

Japanese version
Home page
Updated on April 13, 2018

---------------------------------------------------------------------

* Profile

Discovery Date March 10, 2018
Magnitude 16.8 mag
Discoverer Asteroid Terrestrial-impact Last Alert System (ATLAS) search program

* Orbital Elements

Epoch 2018 May 2.0 TT = JDT 2458240.5
T 2018 Apr. 17.32372 TT                                 MPCW
q   2.7054318            (2000.0)            P               Q
z  +0.0183558      Peri.  299.47240     -0.26852966     -0.80983341
 +/-0.0000000      Node   146.84068     +0.77844306     +0.13650119
e   0.9503397      Incl.   72.47971     -0.56737838     +0.57055874
From 133 observations 2015 Aug. 11-2018 Mar. 16, mean residual 0".3.

* Finding Charts

* Magnitudes Graph

        m1 = 11.5 + 5 log d + 7.5 log r

---------------------------------------------------------------------

The orbital elements are published on M.P.E.C. 2018-F152.
The charts are made with StellaNavigator Ver.10 (AstroArts).
The magnitudes graphs are made with Comet for Windows.

---------------------------------------------------------------------

Copyright(C) Seiichi Yoshida (comet@aerith.net). All rights reserved.